Station FOXR1 - 8454000 - Providence, RI Image indicating link to RSS feed of recent meteorological observations for station FOXR1


Conditions at FOXR1 as of
(4:54 pm EDT)
2054 GMT on 07/20/2024:
     

Click on the graph icon in the table below to see a time series plot of the last five days of that observation.

5-day plot - Wind Direction Wind Direction (WDIR): SW ( 230 deg true )
5-day plot - Wind Speed Wind Speed (WSPD): 9.9 kts
5-day plot - Wind Gust Wind Gust (GST): 13.0 kts
5-day plot - Atmospheric Pressure Atmospheric Pressure (PRES):30.03 in
5-day plot - Water Temperature Water Temperature (WTMP): 71.1 °F
5-day plot - Wind Speed at 10 Meters Wind Speed at 10 meters (WSPD10M): 9.7 kts
5-day plot - Wind Speed at 20 Meters Wind Speed at 20 meters (WSPD20M): 9.7 kts
5-day plot -  Wind Speed, Wind Gust and Atmospheric Pressure Combined plot of Wind Speed, Gust, and Air Pressure
NOS Water Level Observation Network Water Level
Previous observations
TIME
(EDT)
5-day plot - Wind Direction
WDIR
 
5-day plot - Wind Speed
WSPD
kts
5-day plot - Wind Gust
GST
kts
5-day plot - Wave Height
WVHT
ft
5-day plot - Dominant Wave Period
DPD
sec
5-day plot - Average Wave Period
APD
sec
5-day plot - Mean Wave Direction
MWD
 
5-day plot - Atmospheric Pressure
PRES
in
5-day plot - Pressure Tendency
PTDY
in
5-day plot - Air Temperature
ATMP
°F
5-day plot - Water Temperature
WTMP
°F
5-day plot - Dew Point
DEWP
°F
5-day plot - Salinity
SAL
psu
5-day plot - Visibility
VIS
nmi
5-day plot - Tide (above MLLW)
TIDE
ft
2024-07-20 04:48 pm SW 9.9 14.0----30.03-- 71.1----
2024-07-20 04:42 pm SW 11.1 15.0----30.03-- 71.1----
2024-07-20 04:36 pmWSW 11.1 15.0----30.03-- 70.9----
2024-07-20 04:30 pmSSW 6.0 13.0----30.03- 83.8 71.1----
2024-07-20 04:24 pmSSW 9.9 12.0----30.03- 83.3 70.9----
2024-07-20 04:18 pm SW 8.0 13.0----30.03- 83.8 70.9----
2024-07-20 04:12 pmWSW 9.9 15.0----30.03- 84.4 70.9----
2024-07-20 04:06 pmWSW 8.9 13.0----30.04- 85.1 71.1----
2024-07-20 04:00 pmWSW 5.1 13.0------ 84.0 71.1----
2024-07-20 03:54 pmWSW 8.9 11.1------ 84.6 70.9----
2024-07-20 03:48 pm W 8.9 15.0----30.04-- 70.9----
2024-07-20 03:42 pmWSW 6.0 12.0----30.04-- 70.9----
2024-07-20 03:36 pmSSW 9.9 13.0----30.04-- 70.9----
2024-07-20 03:30 pm SW 5.1 9.9----30.04- 83.7 71.1----
2024-07-20 03:24 pmSSW 13.0 15.9----30.05- 83.3 71.1----
2024-07-20 03:18 pm SW 8.9 13.0----30.05- 83.5-----
2024-07-20 03:12 pmWSW 6.0 14.0----30.05- 83.7-----
2024-07-20 03:06 pm SW 11.1 14.0----30.05- 83.8-----
2024-07-20 03:00 pm SW 11.1 15.0----30.05-0.04 84.0 71.4----
2024-07-20 02:54 pm S 8.0 14.0----30.05- 83.1 71.6----
2024-07-20 02:48 pm S 8.0 11.1----30.06-------
2024-07-20 02:42 pmWSW 9.9 12.0----30.06-------
2024-07-20 02:36 pm S 7.0 14.0----30.06-------
2024-07-20 02:30 pmWSW 6.0 12.0----30.06- 83.7 71.8----
2024-07-20 02:24 pm SW 8.9 14.0----30.07- 83.7 71.8----
2024-07-20 02:18 pmWSW 11.1 14.0----30.07- 83.3 71.8----
2024-07-20 02:12 pm SW 8.9 13.0----30.07- 83.5 71.8----
2024-07-20 02:06 pmSSW 8.0 12.0----30.07- 83.8 71.8----
2024-07-20 02:00 pm SW 7.0 9.9----30.07-0.03 82.9 71.8----
2024-07-20 01:54 pmSSW 7.0 12.0----30.07- 83.1 71.8----
2024-07-20 01:48 pm SW 8.9 12.0----30.08- 82.6 71.8----
2024-07-20 01:42 pm SW 6.0 9.9----30.08- 83.5 71.8----
2024-07-20 01:36 pmWSW 8.9 13.0----30.08- 82.8 71.8----
2024-07-20 01:30 pmWSW 8.9 13.0----30.08- 83.3 71.8----
2024-07-20 01:24 pm SW 6.0 12.0----30.09- 83.1 71.8----
2024-07-20 01:18 pmSSW 9.9 13.0----30.09- 82.2 71.8----
2024-07-20 01:12 pmWSW 8.0 14.0----30.09- 82.4 71.8----
2024-07-20 01:06 pm SW 7.0 13.0----30.09- 82.4 71.8----
2024-07-20 01:00 pm SW 11.1 13.0----30.09-0.01 82.0 71.8----
2024-07-20 12:54 pmSSW 7.0 13.0----30.09- 82.4 71.8----
2024-07-20 12:48 pmWNW 5.1 12.0----30.09-- 71.6----
2024-07-20 12:42 pmSSW 6.0 9.9----30.09-- 71.6----
2024-07-20 12:36 pm W 5.1 12.0----30.09-- 71.6----
2024-07-20 12:30 pmWSW 8.0 12.0----30.09- 82.0 71.6----
2024-07-20 12:24 pmWSW 9.9 15.0----30.09- 82.8 71.6----
2024-07-20 12:18 pm SW 6.0 8.9----30.09- 82.6 71.6----
2024-07-20 12:12 pm W 6.0 11.1----30.09- 82.2 71.6----
2024-07-20 12:06 pm W 6.0 8.9----30.09- 82.2 71.6----
2024-07-20 12:00 pmWSW 6.0 9.9----30.09-0.02- 71.4----
2024-07-20 11:54 am SW 8.0 9.9----30.09-- 71.4----
2024-07-20 11:48 am SW 8.0 12.0----30.09-- 71.4----
2024-07-20 11:42 am SW 8.0 12.0----30.10-- 71.4----
2024-07-20 11:36 am W 8.0 11.1----30.09-- 71.4----
2024-07-20 11:30 amSSW 7.0 12.0----30.10- 81.7 71.4----
2024-07-20 11:24 amWSW 8.9 12.0----30.10- 81.1 71.4----
2024-07-20 11:18 am SW 8.9 15.0----30.10- 81.0 71.2----
2024-07-20 11:12 am SW 9.9 12.0----30.10- 81.3 71.2----
2024-07-20 11:06 am SW 8.9 12.0----30.10- 81.1 71.2----
2024-07-20 11:00 amWSW 6.0 12.0----30.10-0.02 81.3 71.1----
2024-07-20 10:54 amWSW 7.0 12.0----30.10- 81.0 71.1----
2024-07-20 10:48 am SW 8.9 12.0----30.10-- 71.1----
2024-07-20 10:42 am W 6.0 8.9----30.10-- 71.1----
2024-07-20 10:36 am SE 5.1 7.0----30.10-- 71.1----
2024-07-20 10:30 amSSE 6.0 9.9----30.10- 78.1 70.9----
2024-07-20 10:24 am SE 6.0 8.9----30.10- 77.0 70.9----
2024-07-20 10:18 am SE 7.0 11.1----30.10- 77.4 70.9----
2024-07-20 10:12 amSSE 6.0 8.0----30.10- 78.4 70.9----
2024-07-20 10:06 am SE 8.0 8.9----30.10- 77.0 70.9----
2024-07-20 10:00 am SE 8.0 11.1----30.10-0.02- 70.7----
2024-07-20 09:54 am SE 7.0 9.9----30.11-- 70.7----
2024-07-20 09:48 am SE 8.9 8.9----30.11- 75.0 70.7----
2024-07-20 09:42 am SE 8.0 8.9----30.11- 74.7 70.7----
2024-07-20 09:36 am SE 8.0 8.9----30.11- 74.3 70.7----
2024-07-20 09:30 amESE 8.0 8.0----30.11- 74.5 70.7----
2024-07-20 09:24 amESE 7.0 8.0----30.11- 74.5 70.7----
2024-07-20 09:18 am SE 6.0 7.0----30.11- 74.7 70.7----
2024-07-20 09:12 amESE 4.1 6.0----30.11- 75.9 70.5----
2024-07-20 09:06 am SW 4.1 7.0----30.11- 77.7 70.5----
2024-07-20 09:00 amSSW 5.1 6.0----30.11+0.00 77.7 70.5----
2024-07-20 08:54 am W 2.9 5.1----30.11- 77.9 70.5----
2024-07-20 08:48 amWSW 2.9 5.1----30.11- 77.2 70.5----
2024-07-20 08:42 amSSW 1.0 2.9----30.12- 77.7 70.5----
2024-07-20 08:36 am- 0.0 2.9----30.12- 76.6 70.5----
2024-07-20 08:30 am W 2.9 5.1----30.12- 75.6 70.5----
2024-07-20 08:24 am W 2.9 5.1----30.11- 75.2 70.5----
2024-07-20 08:18 amWNW 5.1 6.0----30.11-- 70.5----
2024-07-20 08:12 am NW 2.9 5.1----30.11-- 70.5----
2024-07-20 08:06 am- 0.0 1.9----30.11-- 70.5----
2024-07-20 08:00 am NE 1.9 4.1----30.12+0.01 73.8 70.5----
2024-07-20 07:54 am W 2.9 5.1----30.12- 73.9 70.5----
2024-07-20 07:48 amWNW 2.9 5.1----30.12-------
2024-07-20 07:42 am W 1.9 4.1----30.13-------
2024-07-20 07:36 amWSW 1.0 1.9----30.13-------
2024-07-20 07:30 am- 0.0 1.0----30.12- 72.1 70.5----
2024-07-20 07:24 am W 1.0 2.9----30.12- 72.0 70.5----
2024-07-20 07:18 amWNW 1.0 2.9----30.12- 71.6 70.5----
2024-07-20 07:12 amWSW 2.9 4.1----30.12- 71.4 70.5----
2024-07-20 07:06 amWNW 4.1 5.1----30.12- 71.8 70.5----
2024-07-20 07:00 am-------30.12+0.02 72.0 70.5----
2024-07-20 06:54 am-------30.12- 72.1 70.5----
2024-07-20 06:48 am- 0.0 1.0----30.12-- 70.5----
2024-07-20 06:42 am- 0.0 1.0----30.12-- 70.5----
2024-07-20 06:36 am- 0.0 1.0----30.11-- 70.5----
2024-07-20 06:30 am-------30.12- 70.3 70.5----
2024-07-20 06:24 am-------30.11- 70.0 70.5----
2024-07-20 06:18 am SW 1.0 1.9----30.11- 69.6 70.5----
2024-07-20 06:12 amSSW 1.0 1.0----30.11- 69.6 70.5----
2024-07-20 06:06 am- 0.0 1.0----30.11- 70.0 70.5----
2024-07-20 06:00 am- 0.0 1.0----30.11+0.00 69.8 70.5----
2024-07-20 05:54 am S 1.0 1.9----30.11- 69.4 70.5----
2024-07-20 05:48 am- 0.0 1.0----30.11- 68.9 70.5----
2024-07-20 05:42 am- 0.0 1.9----30.11- 68.7 70.5----
2024-07-20 05:36 am- 0.0 1.0----30.11- 68.7 70.5----
2024-07-20 05:30 am- 0.0 1.0----30.11- 68.7 70.5----
2024-07-20 05:24 am- 0.0 1.0----30.10- 68.7 70.5----
2024-07-20 05:18 am- 0.0 2.9----30.11- 68.7 70.7----
2024-07-20 05:12 am SW 1.9 1.9----30.11- 68.7 70.7----
2024-07-20 05:06 am W 1.0 1.9----30.11- 68.7 70.7----
2024-07-20 05:00 am W 1.9 2.9----30.11+0.00 68.9 70.9----
2024-07-20 04:54 am SW 1.9 2.9----30.11- 68.9 70.9----
2024-07-20 04:48 amWSW 1.9 2.9----30.10-- 71.1----
2024-07-20 04:42 amWSW 1.9 4.1----30.10-- 71.2----
2024-07-20 04:36 amWSW 1.9 4.1----30.11-- 71.2----
2024-07-20 04:30 amWSW 1.9 2.9----30.11- 69.3 71.4----
2024-07-20 04:24 am W 1.9 4.1----30.11- 69.3 71.4----
2024-07-20 04:18 am W 4.1 5.1----30.11-- 71.6----
2024-07-20 04:12 amWSW 2.9 4.1----30.10-- 71.6----
2024-07-20 04:06 am SW 1.9 2.9----30.10-- 71.6----
2024-07-20 04:00 amWSW 1.0 2.9----30.10+0.00 69.4 71.6----
2024-07-20 03:54 am W 1.9 4.1----30.10- 69.6 71.6----
2024-07-20 03:48 amWSW 1.9 5.1----30.10-- 71.8----
2024-07-20 03:42 amWSW 2.9 4.1----30.10-- 71.8----
2024-07-20 03:36 am W 4.1 6.0----30.10-- 71.8----
2024-07-20 03:30 am W 4.1 6.0----30.10- 70.2 71.8----
2024-07-20 03:24 am W 4.1 7.0----30.10- 70.2 71.8----
2024-07-20 03:18 am-------30.11- 70.3 72.0----
2024-07-20 03:12 am-------30.10- 70.3 72.0----
2024-07-20 03:06 am-------30.11- 70.3 72.0----
2024-07-20 03:00 amWSW 4.1 6.0----30.11+0.00 70.5 72.0----
2024-07-20 02:54 amWSW 2.9 6.0----30.11- 70.7 72.0----
2024-07-20 02:48 am-------30.11- 70.7 72.0----
2024-07-20 02:42 am-------30.10- 71.1 72.1----
2024-07-20 02:36 am-------30.10- 71.1 72.1----
2024-07-20 02:30 am W 7.0 8.0----30.10- 71.2 72.1----
2024-07-20 02:24 am W 6.0 8.9----30.10- 71.4 72.1----
2024-07-20 02:18 am W 2.9 5.1----30.10- 71.4 72.1----
2024-07-20 02:12 am W 2.9 4.1----30.10- 71.4 72.1----
2024-07-20 02:06 am SW 1.9 4.1----30.10- 71.4 72.1----
2024-07-20 02:00 amWSW 4.1 6.0----30.11+0.00 71.6 72.1----
2024-07-20 01:54 am W 4.1 6.0----30.11- 71.8 72.1----
2024-07-20 01:48 amWSW 2.9 2.9----30.11- 71.8 72.1----
2024-07-20 01:42 am W 1.9 2.9----30.11- 71.8 72.1----
2024-07-20 01:36 am W 2.9 4.1----30.11- 72.0 72.1----
2024-07-20 01:30 am W 2.9 5.1----30.11- 72.0 72.1----
2024-07-20 01:24 amWSW 4.1 5.1----30.11- 72.0 72.1----
2024-07-20 01:18 am SW 4.1 5.1----30.11- 72.0 72.1----
2024-07-20 01:12 amSSW 1.0 1.9----30.11- 71.8 72.1----
2024-07-20 01:06 amSSE 1.9 4.1----30.11- 72.0 72.1----
2024-07-20 01:00 am S 1.9 5.1----30.11+0.00 72.1 72.1----
2024-07-20 12:54 am SW 1.9 5.1----30.11- 72.3 72.1----
2024-07-20 12:48 amWSW 2.9 4.1----30.11-- 72.1----
2024-07-20 12:42 am W 4.1 7.0----30.11-- 72.1----
2024-07-20 12:36 am W 5.1 7.0----30.11-- 72.1----
2024-07-20 12:30 am W 5.1 7.0----30.11- 72.7 72.1----
2024-07-20 12:24 am W 5.1 8.9----30.11- 72.5 72.1----
2024-07-20 12:18 amWSW 6.0 9.9----30.11- 72.5 72.1----
2024-07-20 12:12 amWSW 6.0 8.0----30.11- 72.5 72.1----
2024-07-20 12:06 amWSW 6.0 8.0----30.11- 72.5 72.1----
2024-07-20 12:00 amWSW 5.1 7.0----30.11+0.01 72.5 72.1----
2024-07-19 11:54 pmWSW 5.1 7.0----30.11- 72.5 72.1----
2024-07-19 11:48 pmWSW 4.1 7.0----30.11- 72.5 72.1----
2024-07-19 11:42 pmWSW 4.1 7.0----30.11- 72.7 72.1----
2024-07-19 11:36 pmWSW 5.1 7.0----30.11- 72.7 72.1----
2024-07-19 11:30 pmWSW 5.1 7.0----30.11- 72.7 72.1----
2024-07-19 11:24 pmWSW 6.0 8.0----30.11- 72.9 72.0----
2024-07-19 11:18 pmWSW 5.1 8.0----30.11- 72.9 72.0----
2024-07-19 11:12 pmWSW 5.1 7.0----30.10- 73.0 72.0----
2024-07-19 11:06 pmWSW 6.0 8.0----30.10- 73.0 72.0----
2024-07-19 11:00 pmWSW 5.1 7.0----30.10+0.02 73.0 72.0----
2024-07-19 10:54 pm SW 5.1 7.0----30.10- 73.0 72.0----
2024-07-19 10:48 pm SW 6.0 7.0----30.10-- 72.0----
2024-07-19 10:42 pm SW 5.1 7.0----30.10-- 71.8----
2024-07-19 10:36 pm SW 5.1 8.9----30.11-- 71.8----
2024-07-19 10:30 pm SW 5.1 7.0----30.11- 74.1 71.6----
2024-07-19 10:24 pm SW 4.1 6.0----30.11- 74.3 71.6----
2024-07-19 10:18 pm SW 7.0 8.9----30.10- 74.3 71.4----
2024-07-19 10:12 pmSSW 4.1 8.0----30.10- 74.5 71.4----
2024-07-19 10:06 pmSSW 5.1 7.0----30.11- 74.8 71.2----
2024-07-19 10:00 pmSSW 5.1 8.0----30.11+0.04 75.2 71.1----
2024-07-19 09:54 pm S 5.1 7.0----30.11- 75.4 70.9----
2024-07-19 09:48 pm S 4.1 6.0----30.11- 75.9 70.9----
2024-07-19 09:42 pm S 2.9 5.1----30.11- 76.8 70.7----
2024-07-19 09:36 pm SW 5.1 6.0----30.10- 76.8 70.7----
2024-07-19 09:30 pm SW 4.1 5.1----30.10- 77.0 70.5----
2024-07-19 09:24 pmWSW 2.9 6.0----30.10- 77.4 70.5----
2024-07-19 09:18 pm SW 2.9 4.1----30.10- 77.5 70.3----
2024-07-19 09:12 pm SW 2.9 4.1----30.10- 77.9 70.3----
2024-07-19 09:06 pmWSW 4.1 5.1----30.10- 77.9 70.2----
2024-07-19 09:00 pm SW 2.9 5.1----30.09+0.03 78.1 70.2----
2024-07-19 08:54 pmWSW 2.9 5.1----30.09- 78.3 70.0----
2024-07-19 08:48 pm W 1.9 4.1----30.09- 78.6 70.0----
2024-07-19 08:42 pm W 2.9 6.0----30.09- 78.6 70.0----
2024-07-19 08:36 pm- 0.0 5.1----30.09- 77.9 70.0----
2024-07-19 08:30 pm- 0.0 4.1----30.09- 76.5 70.0----
2024-07-19 08:24 pm E 4.1 5.1----30.09- 76.5 69.8----
2024-07-19 08:18 pm SE 4.1 5.1----30.09-- 69.8----
2024-07-19 08:12 pm SE 4.1 5.1----30.09-- 69.8----
2024-07-19 08:06 pmESE 5.1 6.0----30.08-- 69.8----
2024-07-19 08:00 pmESE 5.1 7.0----30.08+0.01 76.5 69.8----
2024-07-19 07:54 pmESE 6.0 8.0----30.08- 76.5 69.8----
2024-07-19 07:48 pmESE 6.0 7.0----30.08- 76.5 69.8----
2024-07-19 07:42 pm SE 5.1 6.0----30.08- 77.2 69.8----
2024-07-19 07:36 pmESE 6.0 7.0----30.08- 77.4 69.6----
2024-07-19 07:30 pmESE 6.0 8.0----30.08- 77.4 69.6----
2024-07-19 07:24 pm SE 5.1 7.0----30.07- 77.4 69.6----
2024-07-19 07:18 pm SE 6.0 9.9----30.07- 77.4 69.8----
2024-07-19 07:00 pm SE 6.0 8.0----30.07+0.00- 69.6----
2024-07-19 06:54 pmSSE 8.0 9.9----30.07-- 69.8----
2024-07-19 06:48 pmSSE 8.0 8.9----30.07- 77.7 69.8----
2024-07-19 06:42 pm SE 7.0 11.1----30.07- 77.4 69.8----
2024-07-19 06:36 pmSSE 7.0 9.9----30.07- 77.5 69.8----
2024-07-19 06:30 pmSSE 8.0 9.9----30.07-- 69.8----
2024-07-19 06:24 pm SE 9.9 12.0----30.06-- 69.8----
2024-07-19 06:18 pmSSE 8.9 11.1----30.06-- 69.8----
2024-07-19 06:12 pm SE 9.9 12.0----30.06-- 70.0----
2024-07-19 06:06 pm SE 8.9 12.0----30.06-- 70.0----
2024-07-19 06:00 pm SE 8.9 11.1----30.06+0.00 77.4 70.2----
2024-07-19 05:54 pm SE 8.9 11.1----30.06- 77.4 70.2----
2024-07-19 05:48 pmSSE 8.0 8.9----30.06- 77.5 70.3----
2024-07-19 05:42 pm SE 7.0 8.9----30.06- 77.5 70.3----
2024-07-19 05:36 pm SE 6.0 11.1----30.06- 77.7 70.3----
2024-07-19 05:30 pm SE 9.9 12.0----30.06- 77.4 70.3----
2024-07-19 05:24 pmSSE 8.9 11.1----30.07- 77.4 70.5----
2024-07-19 05:18 pm SE 8.0 9.9----30.07- 77.5 70.5----
2024-07-19 05:12 pmSSE 9.9 13.0----30.07- 77.4 70.5----
2024-07-19 05:06 pmSSE 12.0 14.0----30.07- 77.4 70.5----
2024-07-19 05:00 pm SE 8.9 14.0----30.07-0.01 77.4 70.5----
2024-07-19 04:54 pmSSE 9.9 13.0----30.07- 77.4 70.5----